Tracking 34403 objects as of 13-Jun-2026
HD Live streaming from Space Station
objects crossing your sky now

STARLINK-4763

Track STARLINK-4763 now!
10-day predictions
STARLINK-4763 is classified as:


NORAD ID: 53805
Int'l Code: 2022-111AJ
Perigee: 546.0 km
Apogee: 547.8 km
Inclination: 53.2 °
Period: 95.4 minutes
Semi major axis: 6917 km
RCS: Unknown
Launch date: September 11, 2022
Source: United States (US)
Launch site: AIR FORCE EASTERN TEST RANGE (AFETR)
Your satellite tracking list
Your tracking list is empty




NASA's NSSDC Master Catalog

Two Line Element Set (TLE):
1 53805U 22111AJ  26163.27243712  .00000497  00000-0  49340-4 0  9998
2 53805  53.1602 184.5834 0001283  91.9226 268.1913 15.08835868208301
Source of the keplerian elements: AFSPC